THOR ABLESTAR R/B, 59

Orbit data source: Space-Track

THOR ABLESTAR R/B, 59 is space debris in LEO originally from a launch on Tue, 04 Oct 1960 UTC launched from the Air Force Eastern Test Range (AFETR). Debris objects in space refer to the collection of defunct objects orbiting the Earth. Examples of debris include non-operational satellites, rocket bodies, and fragments generated from explosions, collisions, or faulty payload assembly.

Loading next visibility...
Identifier
59, 1960-013B
Orbit
LEO
Country
Flag of USUS
Related business
Manufacturer
Aerojet
Mission
Spacecraft
Bus & Motor
ABLESTAR, Unknown motor
Mass
600 kg wet, 600 kg dry
Launch date (UTC)
1960-10-04 (65 years ago)
Launch vehicle
Unknown
Launch site
Air Force Eastern Test Range (AFETR)
Object type
Payload
Rocket body
Debris
Shape & HBR
Unknown
Radar Cross Section
Large (>1 m²)

Expand to show TLE details & history
Last TLE update: 11 hours ago

TLE from 11 hours ago
0 THOR ABLESTAR R/B
1 00059U 60013B   25300.97627825  .00000144  00000-0  70862-4 0  9996
2 00059  28.2480 236.7091 0189029 166.2441 194.3344 13.53151432211696
Epoch: 2025-10-27T23:25Z
TLE epoch observation values (Epoch: 2025-10-27T23:25:50.440Z)
Latitude
-0.00003°
Longitude
-151.32151°
Altitude
1,195.417 km
Speed
7.192 km/s
True Right ascension
15h 46m 50s
True Declination
0° 00' 00"
Sunlit
Object was in daylight at epoch
Visualization orbit readout
Latitude
Unknown
Longitude
Unknown
Altitude
Unknown
Speed
Unknown
Apparent Right ascension
Unknown
Apparent Declination
Unknown
Sunlit
N/A
Visualization observer readout
Local Sidereal Time
06:14:54
Azimuth
Unknown
Elevation
Unknown
Doppler factor
Unknown
Orbital elements
Apogee altitude
1,205.315 km
Perigee altitude
923.936 km
Semi-major axis
7,442.763 km
Eccentricity
0.0189
Inclination
28.248°
RAAN
236.7091°
Arg. of periapsis
166.2441°
True anomaly
193.81013°
Mean anomaly
194.3344°
Eccentric anomaly
194.07108°
Mean motion
3.3802 °/min
Orbital period
106.5 mins
BSTAR
0.000070862
Loading maneuver chart data...
Computing Atmospheric mass density...
Loading historical data...
Loading historical data...
Loading historical data...
Loading historical data...
Loading historical data...
Loading historical data...
Loading historical data...
Other satellites on launch #13 in the year 1960 (1960-10-04 UTC)

Documentation

Showing up to 5 results
|